Regional Weather Roundup
Issued by NWS

Home | Current Version | Previous Version | Graphics & Text | Print | Product List | Glossary On
Versions: 1 2 3 4 5 6 7 8 9 10 11 12 13 14 15 16 17 18 19 20 21 22 23 24 25 26 27 28 29 30 31 32 33 34 35 36 37 38 39 40 41 42 43 44 45 46 47 48 49 50
000
ASUS43 KBIS 051702
RWRND

NORTH DAKOTA REGIONAL WEATHER ROUNDUP
NATIONAL WEATHER SERVICE BISMARCK ND
1200 PM CDT THU MAY 05 2016

NOTE: "FAIR" INDICATES FEW OR NO CLOUDS BELOW 12,000 FEET WITH NO
SIGNIFICANT WEATHER AND/OR OBSTRUCTIONS TO VISIBILITY.


NDZ001>003-009>011-017-051800-
NORTHWEST NORTH DAKOTA

CITY           SKY/WX    TMP DP  RH WIND       PRES   REMARKS
WILLISTON      SUNNY     80  47  31 S7        29.83F
MINOT          SUNNY     86  43  22 SW15      29.82F
MINOT AFB      SUNNY     83  46  26 SW15      29.80F
$$

NDZ018>021-031>035-040>046-051800-
SOUTHWEST NORTH DAKOTA

CITY           SKY/WX    TMP DP  RH WIND       PRES   REMARKS
BISMARCK       SUNNY     81  45  28 S13       29.89F
DICKINSON      SUNNY     79  44  28 SW8       29.87F
GARRISON         N/A     81  45  28 SW10      29.86F
HETTINGER ARPT SUNNY     74  47  38 S5        29.92F
$$

NDZ004>008-012>016-024-026-027-054-051800-
NORTHEAST NORTH DAKOTA

CITY           SKY/WX    TMP DP  RH WIND       PRES   REMARKS
GRAND FORKS    MOSUNNY   88  43  20 W23       29.80F
GRND FRKS AFB  SUNNY     86  43  22 W20G28    29.81F
DEVILS LAKE    SUNNY     82  46  28 W18       29.85F
$$

NDZ022-023-025-028>030-036>039-047>053-051800-
SOUTHEAST NORTH DAKOTA

CITY           SKY/WX    TMP DP  RH WIND       PRES   REMARKS
FARGO          SUNNY     79  45  29 S12       29.88F
JAMESTOWN      SUNNY     82  40  22 W18G26    29.88F
$$





USA.gov is the U.S. government's official web portal to all federal, state and local government web resources and services.